Terminal Aerodrome Forecast
Issued by NWS

Home | Current Version | Previous Version | Text Only | Print | Product List | Glossary On
Versions: 1 2 3 4 5 6 7 8 9 10 11 12 13 14 15 16 17 18 19 20 21 22 23 24 25 26 27 28
000
FTPA31 PHFO 180500
TAFOGG
TAF
PHOG 180520Z 1806/1906 06012KT P6SM SCT030 BKN050
     FM182000 06018G28KT P6SM SCT030 BKN050
      AMD LTD TO WX VIS AND WIND 1809/1816=

USA.gov is the U.S. government's official web portal to all federal, state and local government web resources and services.